Location: Calvera
(42.3882°N, 0.6137°E)
Time: 20:05:57
(UTC+00:00)

Cosmos 2360 - Pass Details

Date: 28 October 2020
Orbit: 847 x 855 km, 70.8° (Epoch: 23 November)

Event Time Altitude Azimuth Distance (km) Brightness Sun altitude
Exits shadow 04:55:23 - 329° (NNW) 2,675 6.5 -17.3°
Reaches altitude 10° 04:55:53 10° 328° (NNW) 2,484 6.3 -17.2°
Maximum altitude 05:01:29 59° 250° (WSW) 974 4.2 -16.2°
Drops below altitude 10° 05:07:02 10° 172° (S) 2,464 6.8 -15.2°
Sets 05:09:29 0° 169° (S) 3,394 7.6 -14.7°
